Weather History for St. Petersburg Airport, FL

Change the Weather History Date:

Friday, February 14, 2014

  Actual Average Record
Temperature  
Mean Temperature 52 °F -  
Max Temperature 63 °F 71 °F 84 °F (1997)
Min Temperature 42 °F 54 °F 36 °F (1958)
Degree Days  
Heating Degree Days 12    
Growing Degree Days 2 (Base 50)    
Moisture  
Dew Point 44 °F    
Average Humidity 72    
Maximum Humidity 93    
Minimum Humidity 46    
Precipitation  
Precipitation 0.00 in - - ()
Sea Level Pressure  
Sea Level Pressure 30.03 in    
Wind  
Wind Speed 6 mph (SW)    
Max Wind Speed 13 mph    
Max Gust Speed -    
Visibility 10 miles    
Events      
Averages and records for this station are not official NWS values.
T = Trace of Precipitation, MM = Missing Value Source: NWS Daily Summary

Daily Weather History Graph

Daily Weather History Graph

Search for Another Location

Airport:

Trip Planner

Search our weather history database for the weather conditions in past years. The results will help you decide how hot, cold, wet, or windy it might be!

Date:

Astronomy

Feb. 14, 2014 Rise Set
Actual Time 7:09 AM EST 6:21 PM EST
Civil Twilight 6:45 AM EST 6:45 PM EST
Nautical Twilight 6:17 AM EST 7:12 PM EST
Astronomical Twilight 5:50 AM EST 7:40 PM EST
Moon 6:19 PM EST (2/14) 6:38 AM EST (2/14)
Length of Visible Light 12h 00m
Length of Day
11h 12m
Full, 100% of the Moon is Illuminated
Feb 14
Full
Feb 14
Full
Feb 22
Last Quarter
Mar 1
New
Mar 8
First Quarter

Hourly Weather History & Observations

Time (EST) Temp. Windchill Dew Point Humidity Pressure Visibility Wind Dir Wind Speed Gust Speed Precip Events Conditions
12:53 AM 50.0 °F - 44.1 °F 80% 30.00 in 10.0 mi NNW 9.2 mph - N/A   Clear
1:53 AM 50.0 °F - 43.0 °F 77% 30.00 in 10.0 mi North 4.6 mph - N/A   Clear
2:53 AM 48.0 °F - 43.0 °F 83% 30.00 in 10.0 mi NNW 5.8 mph - N/A   Clear
3:53 AM 42.1 °F 40.2 °F 39.9 °F 92% 30.01 in 10.0 mi WSW 3.5 mph - N/A   Clear
4:53 AM 43.0 °F 40.3 °F 41.0 °F 93% 30.01 in 10.0 mi South 4.6 mph - N/A   Clear
5:53 AM 42.1 °F - 39.9 °F 92% 30.03 in 10.0 mi Calm Calm - N/A   Clear
6:53 AM 45.0 °F - 42.1 °F 90% 30.04 in 10.0 mi Calm Calm - N/A   Clear
7:53 AM 46.9 °F - 43.0 °F 86% 30.06 in 10.0 mi Calm Calm - N/A   Clear
8:53 AM 55.9 °F - 46.0 °F 69% 30.09 in 10.0 mi North 3.5 mph - N/A   Clear
9:53 AM 57.0 °F - 42.1 °F 57% 30.09 in 10.0 mi NE 5.8 mph - N/A   Clear
10:53 AM 57.9 °F - 42.1 °F 56% 30.10 in 10.0 mi NE 5.8 mph - N/A   Clear
11:53 AM 60.1 °F - 43.0 °F 53% 30.09 in 10.0 mi Variable 4.6 mph - N/A   Clear
12:53 PM 60.1 °F - 43.0 °F 53% 30.05 in 10.0 mi East 10.4 mph - N/A   Clear
1:53 PM 63.0 °F - 45.0 °F 52% 30.02 in 10.0 mi SSW 9.2 mph - N/A   Partly Cloudy
2:53 PM 63.0 °F - 42.1 °F 46% 30.01 in 10.0 mi SSW 9.2 mph - N/A   Clear
3:53 PM 62.1 °F - 45.0 °F 53% 29.99 in 10.0 mi WSW 12.7 mph - N/A   Clear
4:53 PM 60.1 °F - 45.0 °F 57% 30.00 in 10.0 mi SW 8.1 mph - N/A   Clear
5:53 PM 57.9 °F - 46.0 °F 65% 30.01 in 10.0 mi SW 9.2 mph - N/A   Clear
6:53 PM 55.0 °F - 45.0 °F 69% 30.01 in 10.0 mi West 5.8 mph - N/A   Clear
7:53 PM 53.1 °F - 46.0 °F 77% 30.01 in 10.0 mi South 3.5 mph - N/A   Clear
8:53 PM 52.0 °F - 46.9 °F 83% 30.02 in 10.0 mi South 4.6 mph - N/A   Mostly Cloudy
9:53 PM 54.0 °F - 48.9 °F 83% 30.01 in 10.0 mi SSE 4.6 mph - N/A   Mostly Cloudy
10:53 PM 53.1 °F - 48.0 °F 83% 29.99 in 10.0 mi South 5.8 mph - N/A   Clear
11:53 PM 52.0 °F - 48.0 °F 86% 29.98 in 10.0 mi South 5.8 mph - N/A   Clear